Weather History for KGUS - January, 2014

Change the Weather History Date:

Wednesday, January 29, 2014

  Actual Average Record
Temperature  
Mean Temperature 7 °F -  
Max Temperature 20 °F 31 °F 59 °F (2013)
Min Temperature -6 °F 18 °F -6 °F (2014)
Degree Days  
Heating Degree Days 58    
Moisture  
Dew Point 0 °F    
Average Humidity 71    
Maximum Humidity 88    
Minimum Humidity 54    
Precipitation  
Precipitation 0.00 in - - ()
Sea Level Pressure  
Sea Level Pressure 30.28 in    
Wind  
Wind Speed 13 mph (SW)    
Max Wind Speed 18 mph    
Max Gust Speed -    
Visibility 10 miles    
Events      
Averages and records for this station are not official NWS values.
T = Trace of Precipitation, MM = Missing Value Source: NWS Daily Summary

Daily Weather History Graph

Daily Weather History Graph

Search for Another Location

Airport or City:

Trip Planner

Search our weather history database for the weather conditions in past years. The results will help you decide how hot, cold, wet, or windy it might be!

Date:

Astronomy

Jan. 29, 2014 Rise Set
Actual Time 7:57 AM EST 5:58 PM EST
Civil Twilight 7:28 AM EST 6:27 PM EST
Nautical Twilight 6:55 AM EST 7:00 PM EST
Astronomical Twilight 6:22 AM EST 7:33 PM EST
Moon 6:33 AM EST (1/29) 4:57 PM EST (1/29)
Length of Visible Light 10h 59m
Length of Day
10h 01m
Waning Crescent, 2% of the Moon is Illuminated
Jan 29
Waning Crescent
Jan 30
New
Feb 6
First Quarter
Feb 14
Full
Feb 22
Last Quarter

Hourly Weather History & Observations

Time (EST) Temp. Windchill Dew Point Humidity Pressure Visibility Wind Dir Wind Speed Gust Speed Precip Events Conditions
12:58 AM -6.9 °F -25.7 °F -9.6 °F 88% 30.33 in 10.0 mi SSW 11.5 mph - N/A   Clear
1:58 AM -6.3 °F -24.1 °F -9.0 °F 88% 30.32 in 10.0 mi SW 10.4 mph - N/A   Clear
2:58 AM -4.7 °F -22.1 °F -7.6 °F 87% 30.31 in 10.0 mi SW 10.4 mph - N/A   Clear
3:58 AM -4.0 °F -22.1 °F -7.4 °F 85% 30.30 in 10.0 mi SW 11.5 mph - N/A   Clear
4:58 AM -2.4 °F -19.2 °F -6.9 °F 81% 30.29 in 10.0 mi SW 10.4 mph - N/A   Clear
5:58 AM -1.7 °F -20.8 °F -6.7 °F 79% 30.29 in 10.0 mi SW 13.8 mph - N/A   Clear
6:58 AM -1.8 °F -20.2 °F -7.1 °F 78% 30.29 in 10.0 mi SW 12.7 mph - N/A   Clear
7:58 AM 0.1 °F -18.5 °F -5.8 °F 76% 30.29 in 10.0 mi SW 13.8 mph - N/A   Clear
8:58 AM 0.9 °F -17.6 °F -4.7 °F 77% 30.31 in 10.0 mi WSW 13.8 mph - N/A   Clear
9:58 AM 6.1 °F -11.6 °F -1.1 °F 72% 30.32 in 10.0 mi WSW 15.0 mph - N/A   Clear
10:30 AM 8.6 °F -9.5 °F -0.4 °F 67% 30.24 in 10.0 mi WSW 17.3 mph - N/A   Clear
10:58 AM 9.3 °F -8.0 °F 1.4 °F 70% 30.32 in 10.0 mi WSW 16.1 mph - N/A   Clear
11:58 AM 12.7 °F -3.0 °F 2.8 °F 65% 30.32 in 10.0 mi WSW 15.0 mph - N/A   Clear
12:58 PM 15.6 °F 0.1 °F 5.0 °F 63% 30.29 in 10.0 mi WSW 16.1 mph - N/A   Clear
1:58 PM 17.2 °F 2.7 °F 3.9 °F 56% 30.26 in 10.0 mi WSW 15.0 mph - N/A   Clear
2:58 PM 19.0 °F 4.5 °F 4.8 °F 54% 30.27 in 10.0 mi WSW 16.1 mph - N/A   Clear
3:58 PM 20.3 °F 7.7 °F 7.0 °F 56% 30.28 in 10.0 mi WSW 12.7 mph - N/A   Clear
4:58 PM 19.9 °F 10.1 °F 6.8 °F 57% 30.27 in 10.0 mi WSW 8.1 mph - N/A   Clear
5:58 PM 15.3 °F 5.4 °F 5.5 °F 65% 30.26 in 10.0 mi SSW 6.9 mph - N/A   Clear
6:58 PM 10.9 °F -2.6 °F 3.2 °F 71% 30.26 in 10.0 mi SSW 10.4 mph - N/A   Clear
7:58 PM 11.8 °F -3.0 °F 4.3 °F 72% 30.26 in 10.0 mi SSW 12.7 mph - N/A   Clear
8:58 PM 13.3 °F -1.8 °F 5.2 °F 70% 30.25 in 10.0 mi South 13.8 mph - N/A   Clear
9:58 PM 13.8 °F -2.2 °F 5.5 °F 70% 30.22 in 10.0 mi South 16.1 mph - N/A   Clear
10:58 PM 15.8 °F 0.9 °F 5.7 °F 64% 30.21 in 10.0 mi SSW 15.0 mph - N/A   Clear
11:58 PM 16.0 °F -0.4 °F 5.2 °F 62% 30.19 in 10.0 mi SSW 18.4 mph - N/A   Clear